{"data":{"norad_id":55648,"intl_designator":"2023-021W","name":"STARLINK-5501","alt_names":[],"object_type":"PAYLOAD","status":"ACTIVE","operator":null,"country":"US","launch_date":"2023-02-17","launch_site_code":"AFWTR","launch_vehicle":null,"mission":null,"orbit_class":"UNKNOWN","rcs_meters":null,"size_class":null,"mass_kg":null,"dimensions":null,"purposes":["comms"],"wikipedia_slug":null,"has_3d_model":false,"image_url":null,"decayed_at":null,"tle_current":{"epoch":"2026-09-20T22:00:07.287264Z","epoch_age_seconds":67115,"freshness":"FRESH","line1":"1 55648U 23021W   26263.91675101  .00000258  00000+0  29450-4 0  9993","line2":"2 55648  70.0005  52.2562 0002971 267.3174  92.7645 14.98331547198032","mean_motion":14.98331547,"eccentricity":0.0002971,"inclination_deg":70.0005,"raan_deg":52.2562,"arg_perigee_deg":267.3174,"mean_anomaly_deg":92.7645,"bstar":2.945e-5,"rev_number":19803,"period_min":96.106899896969,"perigee_km":569.98620609206,"apogee_km":574.11600786523,"semimajor_km":6950.1881069786,"source":"CELESTRAK","updated_at":"2026-09-21T09:00:33.284270Z"}}}